User: anonymous   Login
Location: Unspecified
(0.0000°N, 0.0000°E)
Time: 16:31:13
(UTC+00:00)
Language:

SO-50 - Orbit

View from above orbital plane
View from above orbital plane
View from above satellite
View from above satellite

Ground track
Ground track

The orbit data is extracted from the following two-line orbital elements,

1 27607U 02058C   17204.87801376 -.00000012 +00000-0 +18714-4 0  9990
2 27607 064.5560 013.4402 0030010 077.5772 282.8686 14.75342049784528
Epoch (UTC): 23 July 2017 21:04:20
Eccentricity: 0.0030010
inclination: 64.5560°
perigee height: 623 km
apogee height: 665 km
right ascension of ascending node: 13.4402°
argument of perigee: 77.5772°
revolutions per day: 14.75342049
mean anomaly at epoch: 282.8686°
orbit number at epoch: 78452

The dashed part of the orbit path shows where the satellite is in the earth's shadow,  

DLR